Probability
1 3 5 5 4 4 3 3 3 3 3 1 0 0 0 0 0 0 0 0 0 0 0 0 0 0 0 0 0 0 0 0 0 0 0 0 0 0 0 0 0 0 0
1 2 4 4 4 4 3 3 3 3 3 2 1 0 0 0 0 0 0 0 0 0 0 0 0 0 0 0 0 0 0 0 0 0 0 0 0 0 0 0 0 0 0
1 2 2 3 4 3 3 3 3 3 3 2 1 0 0 0 0 0 0 0 0 0 0 0 0 0 0 0 0 0 0 0 0 0 0 0 0 0 0 0 0 0 0
1 2 1 1 3 3 3 3 3 3 3 3 1 0 0 0 0 0 0 0 0 0 0 0 0 0 0 0 0 0 0 0 0 0 0 0 0 0 0 0 0 0 0
1 1 1 1 2 3 3 3 3 3 3 3 2 1 0 0 0 0 0 0 0 0 0 0 0 0 0 0 0 0 0 0 0 0 0 0 0 0 0 0 0 0 0
0 1 1 1 1 3 3 3 3 3 3 3 2 1 0 0 0 0 0 0 0 0 0 0 0 0 1 1 0 0 0 0 0 0 0 0 0 0 0 0 0 0 0
1 1 1 1 1 2 3 3 3 2 2 2 2 1 0 0 0 0 0 0 0 0 0 1 1 1 1 1 1 1 1 0 0 0 0 0 0 0 0 0 0 0 0
2 1 1 0 0 1 3 3 3 2 2 1 1 0 0 0 0 0 0 0 0 0 1 2 2 2 1 1 1 1 2 1 0 0 0 0 0 0 0 0 0 1 1
3 3 2 1 0 1 2 3 3 2 2 1 0 0 0 0 0 0 0 0 0 0 1 2 2 1 0 0 0 1 2 1 0 0 0 0 0 0 1 1 1 2 2
3 3 3 2 1 1 2 2 1 1 1 1 0 0 0 0 0 0 0 0 0 0 1 1 1 0 0 0 0 0 1 1 0 0 0 0 0 1 1 2 3 3 3
4 4 3 3 3 1 1 1 1 0 0 0 0 0 0 0 0 0 0 0 0 0 0 0 0 0 0 0 0 0 0 0 0 0 0 1 1 1 1 2 3 3 3
5 5 4 4 5 3 2 2 2 1 1 0 0 0 0 0 0 0 0 0 0 0 0 0 0 0 0 1 1 0 0 0 0 0 1 1 1 1 0 1 1 2 3
6 6 5 6 7 6 4 4 3 3 2 1 0 0 0 0 0 0 0 0 0 0 0 0 0 0 1 2 2 1 0 0 0 0 0 0 0 0 0 0 0 1 2
7 6 5 7 9 8 5 4 3 3 2 1 1 0 0 0 0 0 0 0 0 0 0 0 0 0 1 2 2 1 0 0 0 0 0 0 0 0 0 0 0 0 1
6 5 4 5 7 7 4 3 3 3 2 2 2 1 0 0 0 0 0 0 0 0 0 0 0 0 0 1 2 2 1 0 0 0 0 0 0 0 0 0 0 0 1
5 5 3 2 3 4 3 3 3 3 3 3 3 2 1 1 1 1 1 0 0 0 0 0 0 0 0 0 1 2 1 0 0 0 0 0 0 0 0 0 0 0 1
4 4 3 2 2 1 1 2 3 3 3 3 3 3 3 2 2 2 2 1 0 0 0 0 0 0 0 0 0 1 1 0 0 0 0 0 0 0 0 0 0 0 0
3 3 3 2 1 0 0 1 2 2 2 3 3 3 3 3 3 3 3 2 1 0 0 0 0 0 0 0 0 0 0 0 0 0 0 0 0 0 0 0 0 0 0
2 2 2 2 2 0 0 0 1 1 1 1 2 3 3 3 3 3 3 3 2 1 1 0 0 0 0 0 0 0 0 0 0 0 0 0 0 0 0 0 0 0 0
1 1 1 1 1 0 0 0 0 0 0 0 1 1 2 3 3 3 3 3 3 3 2 1 0 0 0 0 0 0 0 0 0 0 0 0 0 0 0 0 0 0 0
2 1 0 0 0 0 0 0 0 0 0 0 0 0 1 2 3 3 3 3 3 2 2 1 0 0 0 0 0 0 0 0 0 0 0 0 0 0 0 0 0 0 0
2 1 0 0 0 0 0 0 0 0 0 0 0 0 0 1 1 2 3 3 1 1 1 0 0 0 0 0 0 0 0 0 0 0 0 0 0 0 0 0 0 0 0
2 1 0 0 0 0 0 0 0 0 0 0 0 0 0 0 0 1 2 2 1 0 0 0 0 0 0 0 0 0 0 0 0 0 0 0 0 0 0 0 0 0 0
1 1 0 0 0 0 0 0 0 0 0 0 0 0 0 0 0 0 1 1 0 0 0 0 0 0 0 0 0 0 0 0 0 0 0 0 0 0 0 0 0 0 0
0 0 0 0 0 0 0 0 0 0 0 0 0 0 0 0 0 0 0 0 0 0 0 0 0 0 0 0 0 0 0 0 0 0 0 0 0 0 0 0 0 0 0
0 0 0 0 0 0 0 0 0 0 0 0 0 0 0 0 0 0 0 0 0 0 0 0 0 0 0 0 0 0 0 0 0 0 0 0 0 0 0 0 0 0 0
Wind_Speed
5 7 7 7 8 9 9 9 9 9 9 9 9 9 9 9 9 9 9 9 9 10 10 10 10 10 11 10 10 11 11 11 11 10 10 10 10 10 10 9 7 9 11
7 8 7 6 8 9 9 9 9 9 9 9 9 9 9 9 9 9 9 9 9 10 10 10 10 10 10 10 10 10 10 10 10 9 8 8 10 10 10 10 9 8 10
8 8 9 7 8 9 9 9 9 9 9 9 9 9 9 9 9 9 9 9 9 10 10 10 10 10 10 10 10 10 11 10 9 8 5 6 8 10 10 10 9 9 9
8 8 8 7 8 9 9 8 8 9 9 9 9 9 9 9 9 9 9 9 9 9 9 9 9 9 9 9 10 10 10 10 9 5 4 6 7 9 10 10 10 9 9
7 8 8 7 8 8 9 8 8 8 8 9 9 9 9 9 9 9 9 9 9 9 9 9 9 9 9 9 10 10 9 9 7 5 6 6 6 9 10 10 10 9 9
7 7 8 7 8 8 9 8 8 8 8 9 9 9 10 10 10 9 9 9 8 8 8 8 8 8 9 9 9 9 9 7 4 5 6 6 6 9 9 9 9 9 8
6 7 9 7 8 8 9 9 8 8 9 9 9 10 10 10 9 9 9 9 9 8 8 8 7 8 8 9 9 8 8 6 5 5 5 6 7 9 9 9 9 9 9
6 6 7 7 7 8 8 8 8 8 9 9 9 9 9 9 9 9 9 9 9 8 8 8 8 7 8 8 9 8 7 4 5 5 5 5 8 8 8 8 8 9 9
5 5 5 7 8 8 8 7 7 8 9 9 9 9 9 9 9 8 8 8 8 8 8 9 8 9 9 9 9 8 8 5 4 4 5 4 7 7 8 8 8 8 8
5 5 5 5 6 7 7 7 8 9 9 9 9 9 9 9 9 8 8 8 8 8 8 9 9 9 9 9 8 8 6 3 5 5 4 6 7 7 7 7 7 8 8
5 4 4 5 5 6 7 7 8 8 9 9 8 9 7 5 6 6 8 8 8 8 8 9 9 9 9 9 9 6 3 3 4 4 4 7 7 7 7 7 7 7 7
7 6 4 5 6 5 5 6 5 5 6 5 5 5 4 4 4 5 8 8 8 8 8 9 9 7 4 4 6 4 3 4 4 4 5 8 7 7 7 7 6 6 7
7 6 5 5 6 6 5 5 4 3 4 5 5 5 4 4 4 3 3 4 5 5 5 5 4 3 3 3 3 4 4 4 3 3 6 9 7 7 6 6 6 6 6
8 8 7 6 6 6 5 5 4 4 3 4 4 5 4 3 3 3 2 2 2 2 3 3 3 4 4 4 4 4 4 3 3 3 6 10 9 8 8 7 6 6 6
9 9 8 7 7 6 6 5 5 5 4 4 4 4 4 3 3 3 2 2 2 2 2 3 3 4 4 4 4 5 5 5 4 4 4 10 10 9 8 8 8 8 7
10 9 8 8 8 7 6 6 5 5 4 4 4 4 4 3 3 3 3 2 2 2 2 2 3 3 3 3 4 4 4 4 4 4 4 6 11 11 10 9 9 9 8
10 9 8 8 8 8 7 7 5 5 5 4 4 4 4 4 4 3 3 2 2 3 3 3 3 3 3 3 4 4 3 4 4 4 4 3 4 8 11 10 9 9 8
9 10 9 7 9 8 7 6 5 5 5 4 4 4 4 4 4 3 3 3 3 3 3 3 3 3 2 2 2 2 2 2 3 3 3 4 3 3 6 10 11 10 9
10 10 10 10 10 9 7 6 5 5 5 4 4 4 4 5 4 4 3 3 4 3 3 3 2 2 2 2 2 2 2 2 2 2 3 3 3 3 3 5 8 10 10
10 10 10 10 9 8 6 5 4 4 4 4 4 4 5 4 5 4 3 4 4 3 3 3 3 2 2 2 3 2 1 1 1 2 2 2 2 3 3 4 3 5 9
9 10 10 10 10 8 6 6 5 5 5 4 4 4 5 5 5 4 4 4 4 4 4 4 4 4 2 2 2 2 1 1 1 1 1 1 2 2 3 3 3 3 3
10 10 11 11 10 10 7 6 5 5 4 4 3 4 5 5 5 4 5 4 4 4 5 5 4 3 2 2 2 2 2 2 2 1 1 0 1 1 2 2 3 4 4
9 10 10 11 11 11 10 6 5 4 3 4 5 4 5 5 6 5 5 5 5 5 5 6 5 5 4 3 2 2 2 2 1 2 2 1 1 0 1 1 2 2 3
10 9 10 11 11 10 10 10 11 8 7 7 5 5 5 5 5 5 6 6 5 5 5 5 5 4 5 4 3 2 1 1 1 1 2 2 1 1 1 1 1 2 2
8 8 9 10 10 10 10 12 12 10 7 5 6 7 6 5 5 5 5 6 6 5 6 6 5 5 4 4 3 2 2 1 2 2 2 1 1 1 1 2 2 2 2
6 7 8 9 10 9 10 11 12 12 10 9 8 7 6 4 4 6 5 5 6 5 6 6 5 6 4 4 3 3 2 2 2 3 3 2 2 1 1 2 2 2 2
Wind_Direction
159 154 145 140 127 120 118 116 115 115 117 116 114 111 106 104 100 99 96 94 92 90 88 87 85 80 77 75 79 80 76 72 69 66 68 69 68 71 69 63 60 70 67
153 156 144 140 131 123 118 116 116 117 115 115 115 111 108 105 101 98 96 94 93 92 89 86 83 79 76 76 80 81 79 75 71 66 66 77 72 68 67 60 52 60 64
152 154 150 138 132 127 123 118 115 116 114 113 111 108 105 102 100 98 98 96 94 91 89 87 85 81 78 78 80 80 79 75 71 66 66 78 76 68 66 64 63 61 62
151 153 151 136 135 132 127 123 118 115 113 112 110 106 103 101 101 99 99 98 95 92 90 89 87 84 81 81 82 80 77 71 65 58 70 68 70 65 63 62 62 59 57
151 154 143 137 137 136 130 124 118 114 114 114 110 107 103 101 99 96 99 98 96 94 91 88 85 84 84 85 84 81 77 70 63 66 67 65 66 64 61 61 60 56 54
151 155 145 140 140 137 131 126 121 118 114 112 110 107 106 102 97 94 93 94 94 93 93 89 82 82 85 86 86 82 78 71 74 71 68 64 63 63 60 59 57 56 56
152 155 152 139 137 134 131 127 124 121 118 114 110 107 104 101 98 95 92 88 87 86 87 86 83 85 86 89 87 83 79 67 68 70 64 61 58 61 61 58 55 53 52
151 156 154 139 133 133 132 129 125 120 116 114 111 110 107 103 99 95 93 91 88 85 83 79 77 82 88 90 87 82 74 64 81 73 67 65 55 59 62 58 56 55 52
151 153 156 158 150 136 129 125 121 118 114 109 108 107 103 101 97 92 88 89 88 86 82 77 75 77 86 88 86 80 71 54 74 71 67 62 58 61 62 59 56 54 52
158 161 164 160 160 158 149 127 119 115 112 107 102 98 98 98 96 91 92 86 87 85 82 79 79 78 79 81 79 76 72 75 72 72 64 63 61 63 61 57 54 51 48
168 165 168 168 163 164 156 138 129 119 112 112 108 103 113 120 115 107 90 85 87 85 84 82 81 80 79 80 74 69 72 75 74 62 58 55 60 61 59 55 50 44 41
184 178 172 173 171 169 159 152 148 141 135 135 131 130 128 120 106 102 91 84 81 82 87 83 81 82 81 91 83 72 74 73 71 63 52 48 57 56 54 50 46 40 36
191 185 183 179 178 172 163 159 151 146 142 142 141 137 130 123 120 118 113 105 98 95 93 90 87 77 76 76 74 70 66 63 61 62 51 42 46 50 47 44 41 37 31
195 192 189 184 184 179 171 165 158 155 152 150 148 147 145 138 133 126 121 115 114 108 100 94 87 85 82 79 77 73 68 61 55 54 49 42 44 46 45 39 36 34 27
201 196 192 189 188 181 175 168 166 166 160 154 153 156 155 149 143 134 129 122 119 114 118 110 104 98 91 83 78 76 71 66 60 54 58 46 39 41 40 37 38 37 30
205 199 192 192 191 184 178 172 170 169 161 160 159 160 162 156 150 146 140 134 123 118 113 109 105 101 91 84 80 77 73 70 62 55 52 53 44 37 36 36 36 35 33
204 199 194 193 190 187 181 176 171 169 165 165 162 163 164 159 155 153 148 140 127 123 121 113 108 103 99 95 85 78 74 67 61 51 47 41 45 41 33 29 28 27 25
203 199 193 186 186 187 184 177 169 170 169 166 163 164 165 163 161 161 154 144 137 134 132 127 126 118 112 105 96 84 79 75 65 55 49 42 35 33 35 30 23 19 17
203 198 190 184 185 183 181 174 166 166 169 166 166 168 169 169 168 167 157 143 146 142 139 138 137 133 128 116 102 88 75 77 72 67 59 49 40 28 20 27 23 19 15
202 197 191 185 185 180 173 168 165 167 169 169 175 173 168 169 168 168 158 152 154 149 147 149 138 126 127 125 109 90 70 74 80 71 64 59 47 34 20 11 8 18 17
196 195 193 188 186 180 176 176 174 182 175 175 179 174 174 171 171 172 163 158 162 161 158 155 144 138 133 148 154 141 130 120 115 99 72 55 51 37 24 17 9 3 360
196 196 195 192 189 187 184 181 177 174 179 178 172 178 182 177 177 178 170 164 164 162 163 166 164 164 162 198 214 203 195 181 172 178 176 110 35 32 26 21 17 10 356
201 201 199 194 190 188 181 172 159 158 160 177 184 185 188 185 181 179 175 169 169 173 176 180 183 184 181 185 222 241 231 216 166 174 191 202 229 278 333 358 9 3 353
207 203 201 195 191 187 182 182 182 186 191 192 185 183 181 185 183 181 178 175 176 181 183 185 192 195 190 186 187 235 286 314 239 203 180 185 222 248 273 307 316 339 340
206 201 199 193 190 187 187 191 192 196 197 185 180 180 181 181 184 184 183 179 181 185 186 184 186 193 198 197 189 184 197 212 253 253 244 220 213 216 258 272 282 300 318
205 199 195 192 190 188 190 195 197 197 191 184 184 183 184 182 183 186 185 187 188 188 189 188 187 190 195 197 193 188 192 199 208 224 242 255 268 262 267 262 264 283 303